Tracking 19832 objects as of 24-Aug-2019
HD Live streaming from Space Station
objects crossing your sky now

TELECOM 2C

Track TELECOM 2C now!
TELECOM 2C is classified as:


NORAD ID: 23730
Int'l Code: 1995-067A
Perigee: 36,398.3 km
Apogee: 36,522.9 km
Inclination: 11.7 °
Period: 1,470.3 minutes
Semi major axis: 42831 km
RCS: 7.9433 m2 (large)
Launch date: December 6, 1995
Source: France (FR)
Launch site: FRENCH GUIANA (FRGUI)

Commercial telecommunications but also carries the Syracuse II military payload for communications in X-band; will be replaced by Syracuse III dedicated military communications satellite system.
aabbcc
Your satellite tracking list
Your tracking list is empty




NASA's NSSDC Master Catalog

Two Line Element Set (TLE):
1 23730U 95067A   19235.88313515 -.00000075 +00000-0 +00000-0 0  9999
2 23730 011.7189 032.8420 0014542 244.1989 115.1089 00.97939267086074
Source of the keplerian elements: AFSPC